Miscellaneous Local Product
Issued by NWS Hastings, NE

Home | Current Version | Previous Version | Text Only | Print | Product List | Glossary Off
Versions: 1 2 3 4 5 6 7 8 9 10 11 12 13 14 15 16 17 18 19 20 21 22 23 24 25 26 27 28 29 30 31 32 33 34 35 36 37 38 39 40 41 42 43 44 45 46 47 48 49 50

000
AXUS43 KGID 192202
MISGRI

GID CWA HOURLY WEATHER ROUNDUP
NATIONAL WEATHER SERVICE HASTINGS NE
400 PM CST FRI DEC 19 2014

NOTE: "FAIR" INDICATES FEW OR NO CLOUDS BELOW 12,000 FEET WITH NO
SIGNIFICANT WEATHER AND/OR OBSTRUCTIONS TO VISIBILITY.

...SOUTH CENTRAL NEBRASKA...

CITY           SKY/WX    TMP DP  RH WIND       PRES   REMARKS
GRAND ISLAND   CLOUDY    35  30  82 SW12      30.07F WCI  27
HASTINGS       CLOUDY    36  30  79 S8        30.06S WCI  30
KEARNEY        CLOUDY    30  28  93 S10       30.05S WCI  21
ORD            CLOUDY    27  26  96 S13       30.03F FOG     WCI  16
YORK           CLOUDY    32  32 100 S10       30.10S FOG     WCI  24
AURORA         CLOUDY    34  32  92 S13       30.08S WCI  25
LEXINGTON      SUNNY     35  30  80 S8        30.03S WCI  29
HOLDREGE       PTSUNNY   31  30  96 S5        30.05S FOG     WCI  26
HEBRON         CLOUDY    33  30  87 S7        30.12F FOG     WCI  27

...NEBRASKA PANHANDLE...

CITY           SKY/WX    TMP DP  RH WIND       PRES   REMARKS
CHADRON        SUNNY     43  24  47 CALM      29.96S
ALLIANCE       SUNNY     34  25  69 W9        29.96R WCI  27
SCOTTSBLUFF    SUNNY     39  26  59 W12       29.98R WCI  32
SIDNEY         SUNNY     42  25  50 NW6       30.00R

...WESTERN AND NORTH CENTRAL NEBRASKA...

CITY           SKY/WX    TMP DP  RH WIND       PRES   REMARKS
VALENTINE      CLEAR     39  25  57 W7        29.96R WCI  34
AINSWORTH      CLEAR     32  26  80 S5        29.97R WCI  27
ONEILL         CLOUDY    29  29 100 S8        30.02S FOG     WCI  21
BROKEN BOW     CLEAR     36  30  79 S9        30.00S WCI  29
IMPERIAL       SUNNY     40  29  64 W6        30.02S
NORTH PLATTE   SUNNY     40  27  59 W8        30.01S WCI  34
MCCOOK         SUNNY     48  28  46 SW8       30.03S

...EASTERN NEBRASKA...

CITY           SKY/WX    TMP DP  RH WIND       PRES   REMARKS
NORFOLK        CLOUDY    33  28  81 S13       30.08R WCI  24
SO SIOUX CITY  CLOUDY    34  28  79 S10       30.14S WCI  26
TEKAMAH        CLOUDY    34  28  79 S12       30.15S WCI  25
COLUMBUS       CLOUDY    34  27  75 S10       30.11S WCI  26
ALBION         CLOUDY    31  28  88 S10G16    30.07R FOG     WCI  23
OMAHA EPPLEY   DRIZZLE   32  29  88 S13       30.18S WCI  22
OFFUTT AFB     CLOUDY    32  29  90 S8        30.17S WCI  25
MILLARD        CLOUDY    33  30  88 S6        30.16S WCI  28
LINCOLN        CLOUDY    34  30  85 S9        30.15S WCI  27
NEBRASKA CITY  CLOUDY    31  31  99 S6        30.18R FOG     WCI  25
BEATRICE       CLOUDY    32  31  94 S9        30.15S FOG     WCI  24
FALLS CITY     CLOUDY    31  27  85 S8        30.19S WCI  23

...NORTHERN KANSAS...

CITY           SKY/WX    TMP DP  RH WIND       PRES   REMARKS
GOODLAND       SUNNY     48  24  39 SW9       30.05S
HILL CITY      SUNNY     51  30  44 SW12      30.06S
NORTON         CLEAR     50  27  40 W7        30.03S
PHILLIPSBURG   SUNNY     50  32  50 S8        30.06S
SMITH CENTER   SUNNY     39  36  87 SE14      30.08S WCI  31
BELOIT         CLOUDY    36  32  87 SE8       30.12S WCI  29
HAYS           SUNNY     46  30  53 S12       30.09S
RUSSELL        SUNNY     41  36  82 S15       30.09S
CONCORDIA      CLOUDY    33  30  88 S9        30.13F WCI  25
SALINA         CLOUDY    35  31  85 S8        30.16S WCI  29
TOPEKA         CLOUDY    33  28  81 SW7       30.21F WCI  27



USA.gov is the U.S. government's official web portal to all federal, state and local government web resources and services.